Date,TemperatureHighF,TemperatureAvgF,TemperatureLowF,DewpointHighF,DewpointAvgF,DewpointLowF,HumidityHigh,HumidityAvg,HumidityLow,PressureMaxIn,PressureMinIn,WindSpeedMaxMPH,WindSpeedAvgMPH,GustSpeedMaxMPH,PrecipitationSumIn
2013-8-1,84.0,74.8,71.0,74.0,71.2,69.0,99,89,67,29.96,29.81,0,0,5,0.36
2013-8-2,90.0,78.4,70.0,74.0,71.3,68.0,98,81,52,29.96,29.84,1,0,9,0.01
2013-8-3,90.0,79.6,72.0,76.0,73.2,70.0,97,82,52,29.96,29.84,6,0,13,0.88
2013-8-4,84.0,75.6,68.0,74.0,68.9,64.0,99,82,54,29.96,29.82,4,0,12,0.88
2013-8-5,85.0,73.7,64.0,69.0,64.7,59.0,97,76,47,30.03,29.94,1,0,10,0.01
2013-8-6,83.0,74.1,68.0,69.0,66.5,64.0,96,78,57,30.01,29.94,3,0,11,0.13
2013-8-7,86.0,76.5,69.0,71.0,68.7,67.0,94,78,54,30.04,29.96,5,0,13,0.05
2013-8-8,90.0,78.1,70.0,74.0,70.7,68.0,97,80,53,30.01,29.93,3,0,7,0.00
2013-8-9,92.0,80.4,73.0,76.0,74.0,72.0,97,82,55,30.00,29.93,4,0,10,0.00
2013-8-10,93.0,81.0,73.0,78.0,74.3,72.0,97,82,55,30.04,29.94,4,0,24,0.27
2013-8-11,93.0,80.2,71.0,77.0,73.3,71.0,99,82,54,30.05,29.94,1,0,4,0.27
2013-8-12,93.0,80.4,74.0,75.0,73.1,69.0,97,81,46,29.98,29.88,2,0,7,0.00
2013-8-13,91.0,78.1,73.0,79.0,71.6,-99.9,98,85,60,29.89,29.71,3,0,12,0.81
2013-8-14,76.0,70.2,64.0,73.0,64.2,-99.9,98,85,75,30.01,29.76,3,0,7,0.02
2013-8-15,77.0,59.5,61.0,61.0,39.8,-99.9,90,71,54,30.09,30.01,0,0,2,0.00
2013-8-16,71.0,63.6,60.0,64.0,55.8,-99.9,95,84,65,30.10,30.02,0,0,4,0.01
2013-8-17,73.0,68.5,65.0,72.0,66.6,61.0,98,94,86,30.09,30.03,2,0,10,0.40
2013-8-18,84.0,73.4,70.0,72.0,67.0,-99.9,99,84,62,30.14,30.05,1,0,7,0.01
2013-8-19,73.0,65.2,68.0,71.0,51.4,-99.9,98,93,87,30.12,30.03,0,0,7,0.47
2013-8-20,83.0,74.1,70.0,74.0,68.9,-99.9,99,89,67,30.12,30.04,0,0,1,0.01
2013-8-21,87.0,75.3,70.0,76.0,72.1,69.0,99,91,68,30.16,30.05,2,0,13,0.05
2013-8-22,89.0,78.3,69.0,75.0,71.6,69.0,99,82,55,30.09,29.93,4,0,12,0.05
2013-8-23,88.0,77.0,69.0,75.0,70.6,68.0,98,82,55,29.98,29.86,2,0,10,0.01
2013-8-24,82.0,72.7,66.0,69.0,62.1,58.0,91,71,44,30.22,29.98,5,1,16,0.00
2013-8-25,80.0,68.1,62.0,63.0,57.5,-99.9,98,74,42,30.32,30.22,3,0,15,0.00
2013-8-26,83.0,68.1,56.0,63.0,58.5,55.0,99,76,41,30.25,30.06,1,0,5,0.00
2013-8-27,87.0,70.0,60.0,71.0,63.2,59.0,95,81,54,30.06,29.92,0,0,0,0.00
2013-8-28,84.0,80.3,75.0,75.0,74.4,73.0,94,82,70,29.91,29.83,0,0,0,0.00
2013-8-29,88.0,79.7,73.0,74.0,72.1,70.0,93,79,58,29.94,29.78,3,0,13,0.00
2013-8-30,88.0,74.5,65.0,70.0,67.0,64.0,98,80,48,29.99,29.89,4,0,9,0.00
2013-8-31,88.0,75.6,66.0,73.0,69.1,65.0,99,82,55,29.92,29.81,5,1,11,0.00